Location: ??????????
(42.1626°N, 44.1160°E)
Time: 13:29:37
(UTC+00:00)

Cosmos 2360 Rocket - Pass Details

Date: 03 March 2021
Orbit: 833 x 846 km, 71.0° (Epoch: 20 April)

Event Time Altitude Azimuth Distance (km) Brightness Sun altitude
Rises 15:11:36 0° 171° (S) 3,371 5.3 -3.7°
Reaches altitude 10° 15:14:20 10° 160° (SSE) 2,443 4.5 -4.2°
Maximum altitude 15:19:02 28° 103° (ESE) 1,520 3.0 -5.1°
Drops below altitude 10° 15:23:46 10° 46° (NE) 2,466 4.2 -6.0°
Sets 15:26:31 0° 35° (NE) 3,407 5.0 -6.5°
